Regional Weather Roundup
Issued by NWS

Home | Current Version | Previous Version | Text Only | Print | Product List | Glossary On
Versions: 1 2 3 4 5 6 7 8 9 10 11 12 13 14 15 16 17 18 19 20 21 22 23 24 25 26 27 28 29 30 31 32 33 34 35 36 37 38 39 40 41 42 43 44 45 46 47 48 49 50
000
ASUS43 KOAX 130810
RWRNE

WEATHER ROUNDUP FOR NEBRASKA
NATIONAL WEATHER SERVICE OMAHA NE
200 AM CST SAT FEB 13 2016

NOTES: SATELLITE DATA IS BEING USED TO AUGMENT CLOUD COVER ABOVE
       12000 FEET.
       "FAIR" INDICATES FEW OR NO CLOUDS BELOW 12,000 FEET WITH NO
       SIGNIFICANT WEATHER AND/OR OBSTRUCTIONS TO VISIBILITY.

  * THESE STATIONS DO NOT REPORT WEATHER SUCH AS RAIN...SNOW OR FOG.

NEZ001>004-019>022-054>056-130900-
NEBRASKA PANHANDLE

CITY           SKY/WX    TMP DP  RH WIND       PRES   REMARKS
SCOTTSBLUFF    CLOUDY    33  30  88 SE12      30.19F WCI  24
ALLIANCE       CLOUDY    30  29  96 S16       30.19F FOG     WCI  19
CHADRON        CLOUDY    34  30  85 S8        30.18F WCI  27
KIMBALL        FOG       30  30 100 S12       30.19F VSB 1/2 WCI  20
SIDNEY         CLOUDY    29  29 100 S14       30.23F FOG     WCI  18
$$

NEZ057>060-069>072-079>082-130900-
SOUTHWEST NEBRASKA

CITY           SKY/WX    TMP DP  RH WIND       PRES   REMARKS
NORTH PLATTE   CLOUDY    23  19  85 SE10      30.38F WCI  12
IMPERIAL       CLOUDY    29  27  92 S18       30.33F WCI  16
LEXINGTON      CLOUDY    22  17  83 SE10      30.45S WCI  11
MCCOOK         CLOUDY    25  24  96 SE15      30.41F FOG     WCI  13
OGALLALA       CLOUDY    29  27  93 SE13      30.32F FOG     WCI  19
$$

NEZ005>010-023>029-035>040-094-130900-
NORTH CENTRAL NEBRASKA

CITY           SKY/WX    TMP DP  RH WIND       PRES   REMARKS
VALENTINE      CLOUDY    22  16  78 SE12      30.36F WCI  10
AINSWORTH      FLURRIES  20  15  81 SE14G20   30.37F WCI   6
BROKEN BOW     CLOUDY    19  15  84 S13       30.43F WCI   6
O`NEILL        CLOUDY    15   9  77 SE9       30.49F WCI   3
ORD            CLOUDY    17  12  80 SE8       30.47F WCI   7
THEDFORD       CLOUDY    25  21  85 S15       30.34F WCI  13
$$

NEZ041-046>049-061>064-073>077-083>087-130900-
SOUTH CENTRAL NEBRASKA

CITY           SKY/WX    TMP DP  RH WIND       PRES   REMARKS
GRAND ISLAND   CLOUDY    16   9  74 E8        30.53F WCI   5
AURORA         CLOUDY    16   8  71 E9        30.53F WCI   5
HASTINGS       CLOUDY    18  10  71 E8        30.49F WCI   8
HEBRON         CLOUDY    19  11  71 E7        30.56F WCI   9
HOLDREGE       CLOUDY    18  15  86 SE6       30.46F WCI  10
KEARNEY *      CLOUDY    19  14  79 SE12      30.47F WCI   7
YORK           CLOUDY    16   9  73 E8        30.54F WCI   5
$$

NEZ011>018-030>034-042>045-130900-
NORTHEAST NEBRASKA

CITY           SKY/WX    TMP DP  RH WIND       PRES   REMARKS
NORFOLK        CLOUDY    12   3  67 E7        30.54F WCI   1
ALBION         CLOUDY    15   7  71 E7        30.51F WCI   5
BLAIR          CLOUDY    11   3  71 NE6       30.58F WCI   1
COLUMBUS *     CLOUDY    12   0  57 E8        30.58F WCI   1
FREMONT        CLOUDY    10   0  62 NE3       30.60F
TEKAMAH        CLOUDY     7  -3  64 N10       30.63F WCI  -8
WAYNE          CLOUDY     9   0  68 NE8       30.58F WCI  -4
$$

NEZ050>053-065>068-078-088>093-130900-
SOUTHEAST NEBRASKA

CITY           SKY/WX    TMP DP  RH WIND       PRES   REMARKS
LINCOLN        CLOUDY    15   5  64 NE8       30.61F WCI   4
OMAHA EPPLEY   CLOUDY    11   0  61 N8        30.64F WCI  -1
BEATRICE       CLOUDY    17   8  67 NE7       30.58F WCI   7
FALLS CITY     CLOUDY    16   2  54 NE7       30.62F WCI   6
NEBRASKA CITY  CLOUDY    14   2  59 NE9       30.62R WCI   1
PLATTSMOUTH    CLOUDY    13   0  58 NE7       30.60S WCI   2
$$

NEZ044-045-051>053-067-130900-
OMAHA AREA

CITY           SKY/WX    TMP DP  RH WIND       PRES   REMARKS
OMAHA EPPLEY   CLOUDY    11   0  61 N8        30.64F WCI  -1
BLAIR          CLOUDY    11   3  71 NE6       30.58F WCI   1
FREMONT        CLOUDY    10   0  62 NE3       30.60F
MILLARD        CLOUDY    14   1  55 CALM      30.63S
OFFUTT AFB     MOCLDY    12   1  60 NE9       30.63S WCI   0
PLATTSMOUTH    CLOUDY    13   0  58 NE7       30.60S WCI   2
WAHOO          CLOUDY    12   4  70 NE8       30.60F WCI   1
$$



USA.gov is the U.S. government's official web portal to all federal, state and local government web resources and services.